This is the latest recevied weather packets stored in our database for station/object K5OLV. If no packets are shown the sender has not sent any weather packets the latest 1 day(s).
| Time | Temp. | Humidity | Pressure | Rain* | Wind** | Luminosity | Snow |
|---|---|---|---|---|---|---|---|
| 1777985530 | 15.56° C | 73% | 1012.9 hPa | 0 mm | 0.45 m/s, 330° | 182 W/m² | - |
| 1777985227 | 15.56° C | 74% | 1012.9 hPa | 0 mm | 0.45 m/s, 300° | 165 W/m² | - |
| 1777984923 | 15.56° C | 73% | 1012.6 hPa | 0 mm | 0.45 m/s, 176° | 84 W/m² | - |
| 1777984619 | 15.56° C | 73% | 1012.7 hPa | 0 mm | 0.89 m/s, 214° | 105 W/m² | - |
| 1777984316 | 15.56° C | 73% | 1012.4 hPa | 0 mm | 0.89 m/s, 256° | 110 W/m² | - |
| 1777984013 | 15° C | 75% | 1012.1 hPa | 0 mm | 0 m/s | 128 W/m² | - |
| 1777983710 | 15° C | 75% | 1012 hPa | 0 mm | 1.34 m/s, 117° | 113 W/m² | - |
| 1777983407 | 14.44° C | 77% | 1012 hPa | 0 mm | 0.45 m/s, 176° | 96 W/m² | - |
| 1777983103 | 14.44° C | 76% | 1012 hPa | 0 mm | 0.45 m/s, 275° | 75 W/m² | - |
| 1777982799 | 13.89° C | 77% | 1012.1 hPa | 0 mm | 0.89 m/s, 91° | 69 W/m² | - |
| 1777982496 | 13.89° C | 78% | 1012 hPa | 0 mm | 0.45 m/s, 153° | 58 W/m² | - |
| 1777982190 | 13.89° C | 77% | 1012 hPa | 0 mm | 0.45 m/s, 74° | 53 W/m² | - |
| 1777981888 | 14.44° C | 76% | 1012 hPa | 0 mm | 0.89 m/s, 118° | 47 W/m² | - |
| 1777981584 | 14.44° C | 75% | 1011.6 hPa | 0 mm | 0.45 m/s, 108° | 46 W/m² | - |
| 1777981280 | 14.44° C | 74% | 1011.9 hPa | 0 mm | 0.89 m/s, 106° | 46 W/m² | - |
| 1777980977 | 14.44° C | 75% | 1011.9 hPa | 0 mm | 0.45 m/s, 89° | 47 W/m² | - |
| 1777980674 | 13.89° C | 75% | 1011.6 hPa | 0 mm | 0.45 m/s, 111° | 41 W/m² | - |
| 1777980370 | 13.89° C | 74% | 1011.4 hPa | 0 mm | 0.45 m/s, 52° | 36 W/m² | - |
| 1777980068 | 13.89° C | 75% | 1011.3 hPa | 0 mm | 1.34 m/s, 136° | 32 W/m² | - |
| 1777979762 | 13.89° C | 74% | 1011.1 hPa | 0 mm | 1.34 m/s, 80° | 29 W/m² | - |
| 1777979458 | 13.33° C | 74% | 1011.3 hPa | 0 mm | 1.79 m/s, 124° | 21 W/m² | - |
| 1777979155 | 13.33° C | 73% | 1011.5 hPa | 0 mm | 1.34 m/s, 146° | 13 W/m² | - |
| 1777978852 | 13.33° C | 74% | 1011.2 hPa | 0 mm | 2.24 m/s, 83° | 10 W/m² | - |
| 1777978548 | 13.33° C | 73% | 1011.1 hPa | 0 mm | 2.24 m/s, 127° | 6 W/m² | - |
| 1777978244 | 13.33° C | 71% | 1011 hPa | 0 mm | 2.24 m/s, 121° | 3 W/m² | - |
* Rain latest hour (hover to see other rain measurements)
** Current wind speed in m/s (hover to see current wind gust speed)